• Processing (Info)

  • MPEC 2006-X36 : 2006 XH1

    The following Minor Planet Electronic Circular may be linked-to from your own Web pages, but must not otherwise be redistributed electronically.

    A form allowing access to any MPEC is at the bottom of this page.


    Read MPEC 2006-X35 Read MPEC 2006-X37


    M.P.E.C. 2006-X36                                Issued 2006 Dec. 11, 22:30 UT
    
         The Minor Planet Electronic Circulars contain information on unusual
             minor planets and routine data on comets.  They are published
       on behalf of Commission 20 of the International Astronomical Union by the
              Minor Planet Center, Smithsonian Astrophysical Observatory,
                              Cambridge, MA 02138, U.S.A.
    
                 Prepared using the Tamkin Foundation Computer Network
    
                                  MPC@CFA.HARVARD.EDU
              URL http://cfa-www.harvard.edu/iau/mpc.html  ISSN 1523-6714
    
                                       2006 XH1
    
    Observations:
         K06X01H* C2006 12 11.34766 06 39 42.12 +29 37 32.3          19.1 V EX036703
         K06X01H  C2006 12 11.35174 06 39 42.30 +29 37 27.7          19.5 V EX036703
         K06X01H  C2006 12 11.35504 06 39 42.44 +29 37 24.4          19.6 V EX036703
         K06X01H  C2006 12 11.35840 06 39 42.62 +29 37 20.1          19.6 V EX036703
         K06X01H  C2006 12 11.45523 06 39 47.11 +29 35 34.7          19.6 V EX036703
         K06X01H  C2006 12 11.45611 06 39 47.15 +29 35 34.1          19.6 V EX036703
         K06X01H  C2006 12 11.87668 06 40 12.90 +29 27 52.5                 EX036J95
         K06X01H  C2006 12 11.88221 06 40 13.18 +29 27 46.4                 EX036J95
         K06X01H  C2006 12 11.88820 06 40 13.47 +29 27 40.0          19.5 R EX036J95
    
    Observer details:
    703 Catalina Sky Survey.  Observer E. J. Christensen.  Measurers E. C. Beshore,
        E. J. Christensen, G. J. Garradd, A. R. Gibbs, A. D. Grauer, R. E. Hill,
        R. A. Kowalski, S. M. Larson, R. H. McNaught.  0.68-m Schmidt + CCD.
    J95 Great Shefford.  Observer P. Birtwhistle.  0.40-m f/6.0 Schmidt-Cassegrain
        + CCD.
    
    Orbital elements:
    2006 XH1                                                 Earth MOID = 0.2669 AU
    Epoch 2006 Sept. 22.0 TT = JDT 2454000.5                MPC
    M 352.96083              (2000.0)            P               Q
    n   0.12957783     Peri.  135.85065     +0.49093330     -0.86783759
    a   3.8676656      Node   284.60881     +0.77582714     +0.47541828
    e   0.6773604      Incl.    4.53047     +0.39632909     +0.14434462
    P   7.61           H   20.6           G   0.15           U   9
    Residuals in seconds of arc
    061211 703  0.1+  0.3+    061211 703  0.1+  0.5-    061211 J95  0.1+  0.4+
    061211 703  0.0   0.0     061211 703  0.0   0.3-    061211 J95  0.1+  0.1-
    061211 703  0.2-  0.2+    061211 703  0.0   0.1+    061211 J95  0.2-  0.3-
    
    Ephemeris:
    2006 XH1                 a,e,i = 3.87, 0.68, 5                   q = 1.2479
    Date    TT    R. A. (2000) Decl.     Delta      r     Elong.  Phase     V
    2006 12 11    06 39.36   +29 43.8    0.321    1.289   159.1    15.8    19.5
    2006 12 21    06 46.22   +26 51.1    0.348    1.326   167.9     8.9    19.5
    2006 12 31    06 49.26   +24 20.4    0.390    1.373   177.4     1.8    19.5
    2007 01 10    06 51.18   +22 19.7    0.447    1.427   172.5     5.1    20.0
    2007 01 20    06 53.81   +20 49.0    0.520    1.489   163.0    11.1    20.7
    2007 01 30    06 58.27   +19 43.1    0.610    1.556   153.9    16.1    21.4
    2007 02 09    07 04.85   +18 54.9    0.715    1.627   145.4    20.1    21.9
    
    Timothy B. Spahr             (C) Copyright 2006 MPC           M.P.E.C. 2006-X36
    

    Read MPEC 2006-X35 Read MPEC 2006-X37


    MPEC number:

    Enter an MPEC number in one of the following forms:

    • 1997-B01 (the full form)
    • J97B01 (the packed version of the full form)
    • B01 (the abbreviated form)